www.pogodaiklimat.ru

Погода и климат >> Архив погоды >> Узбекистан >> Нукус


ПОГОДА в Нукусе

  • Прогноз погоды в Нукусе
  • Монитор погоды в Нукусе
  • Климат города

АРХИВ ПОГОДЫ в Нукусе

Время (UTC), дата Ветер
(напр.,м/с)
 
Видим.   Явления Облачность Т
(С)
Тd
(С)
f
(%)
Тe
(С)
Тes
(С)
Комфортность P
(гПа)
Po
(гПа)
Тmin
(С)
Tmax
(С)
R
(мм)
R24
(мм)
S
(см)
00 12.11 С 9 20 км 8/0
[Ac trans]
-3.4 -24.4 18 -11 -11 1035.2 1025.4
03 12.11 СВ 9 20 км 8/0
[Ac trans]
-3.9 -22.5 22 -12 -12 1036.5 1026.7
06 12.11 СВ 9 20 км 8/0
[Ac trans]
-2.6 -26.7 14 -10 -10 1038.6 1028.8 -4.2
09 12.11 СВ 9 20 км 4/0
[Ac trans]
+0.2 -27.2 11 -6 -6 1038.1 1028.3
12 12.11 СВ 9 20 км 3/0
[Ac trans]
-0.9 -29.6 9 -8 -8 1038.6 1028.8
15 12.11 СВ 8 20 км ясно -3.2 -27.9 13 -10 -10 1039.8 1030.0 +0.7
18 12.11 СВ 7 20 км ясно -5.2 -22.1 25 -13 -13 1040.4 1030.4 +0.7
21 12.11 СВ 5 20 км ясно -7.6 -21.5 32 -15 -15 1040.2 1030.2
00 13.11 СВ 4 20 км ясно -9.4 -20.0 42 -16 -16 1039.4 1029.4
03 13.11 С 5 20 км 1/0
[Ci ing]
-10.6 -19.0 50 -18 -18 1039.6 1029.4
06 13.11 СВ 6 20 км 5/0
[Ci fib]
-6.3 -17.7 40 -14 -13 1039.9 1029.9 -10.8
09 13.11 СВ 8 20 км 4/0
[]
-0.9 -23.4 16 -7 -7 1037.7 1027.9
12 13.11 СВ 7 20 км 3/0
[Ci fib]
-0.3 -23.4 16 -6 -6 1036.6 1026.8
15 13.11 С 4 20 км 3/0
[Ci fib]
-3.6 -21.6 23 -9 -9 1037.2 1027.4 +0.5
18 13.11 С 6 20 км ясно -4.9 -20.3 29 -12 -12 1037.0 1027.0 +0.5
21 13.11 С 5 20 км ясно -7.1 -20.3 34 -14 -14 1036.3 1026.3
00 14.11 С 2 20 км ясно -9.2 -18.8 46 -13 -13 1036.0 1026.0
03 14.11 С 3 20 км 5/0
[Ci fib]
-10.8 -18.1 55 -17 -17 1036.4 1026.2
06 14.11 СВ 5 20 км 5/0
[Ci ing]
-5.6 -18.6 35 -12 -11 1036.2 1026.2 -11.1
09 14.11 С 7 20 км 3/0
[Ci fib]
+0.6 -23.7 14 -5 -4 1034.0 1024.3
12 14.11 СВ 7 20 км 1/0
[Ci ing]
+2.3 -23.4 13 -3 -3 1034.0 1024.3
15 14.11 С 2 20 км ясно -3.1 -19.1 28 -6 -6 1034.1 1024.3 +2.7
18 14.11 С 3 20 км ясно -5.8 -19.1 34 -11 -11 1034.3 1024.3 +2.7
21 14.11 СВ 3 20 км ясно -6.0 -18.7 36 -11 -11 1033.5 1023.6
00 15.11 С 3 20 км ясно -7.9 -19.5 39 -13 -13 1033.3 1023.4
03 15.11 СВ 3 20 км ясно -9.7 -19.8 44 -15 -15 1034.1 1024.0
06 15.11 С 3 20 км ясно -4.7 -19.9 29 -9 -7 1034.2 1024.2 -10.0
09 15.11 СВ 5 20 км ясно +2.2 -21.2 16 -2 0 1032.7 1023.1
12 15.11 С 5 20 км ясно +3.0 -20.6 16 -1 -1 1032.6 1023.0
15 15.11 СВ 2 20 км 1/0
[Ci fib]
-1.6 -19.4 24 -4 -4 1032.9 1023.2 +3.6
18 15.11 СВ 3 20 км ясно -3.8 -17.7 33 -8 -8 1033.1 1023.4 +3.6
21 15.11 С 2 20 км ясно -6.8 -17.3 43 -11 -11 1033.3 1023.4
00 16.11 СВ 3 20 км ясно -7.5 -17.1 46 -13 -13 1032.9 1023.0
03 16.11 СВ 2 20 км ясно -9.1 -17.9 49 -13 -13 1033.3 1023.4
06 16.11 СВ 4 20 км ясно -2.0 -18.8 26 -7 -5 1033.3 1023.6 -9.4
09 16.11 СВ 6 20 км ясно +6.4 -17.7 16 +3 +5 1031.6 1022.2
12 16.11 СВ 6 20 км 3/0
[Ci fib]
+6.7 -14.3 21 +3 +3 1030.4 1021.0
15 16.11 С 5 20 км 5/0
[Ci fib]
+0.9 -15.7 28 -4 -4 1030.7 1021.1 +7.7
18 16.11 СВ 4 20 км 6/0
[Ci fib]
-2.3 -16.3 33 -7 -7 1030.4 1020.7 +7.7
21 16.11 С 4 20 км 4/0
[Ci fib]
-3.7 -15.9 38 -9 -9 1028.9 1019.2
00 17.11 С 3 20 км 4/0
[Ci fib]
-5.4 -14.7 48 -10 -10 1028.6 1018.7
03 17.11 С 3 20 км 4/0
[Ci fib]
-7.7 -14.9 56 -13 -13 1028.5 1018.6
06 17.11 С 4 20 км 1/0
[Ci fib]
-2.3 -15.0 37 -7 -5 1028.5 1018.8 -8.0
09 17.11 С 4 20 км 3/0
[Ci fib]
+4.3 -14.0 25 +1 +4 1026.7 1017.1
12 17.11 С 3 20 км 3/0
[Ci fib]
+4.2 -15.0 23 +2 +2 1026.4 1016.8
15 17.11 С 3 20 км 3/0
[Ci fib]
-2.2 -14.8 37 -6 -6 1027.3 1017.6 +5.3
18 17.11 С 3 20 км ясно -4.9 -14.6 47 -10 -10 1027.4 1017.5 +5.3
21 17.11 С 1 20 км ясно -7.3 -14.9 55 -9 -9 1026.6 1016.7
00 18.11 С 1 20 км 6/0
[Ac trans]
-7.4 -15.0 54 -9 -9 1026.7 1016.8
03 18.11 С 2 20 км 6/0
[Ac trans]
-8.1 -15.5 55 -12 -12 1026.2 1016.3
06 18.11 СВ 2 20 км 5/0
[Ac trans Ci ing]
-2.5 -14.1 40 -6 -3 1026.8 1017.1 -8.4
09 18.11 СВ 2 20 км 6/0
[Ac trans]
+5.7 -14.8 21 +4 +7 1024.5 1015.1
12 18.11 СВ 3 20 км 8/0
[Ac trans]
+6.6 -15.3 19 +5 +5 1024.1 1014.7
15 18.11 СВ 3 20 км 8/0
[Ac trans]
+2.9 -16.1 23 0 0 1024.2 1014.6 +8.0
18 18.11 СВ 1 20 км 8/0
[Ac trans]
+1.2 -15.7 27 +1 +1 1023.9 1014.3 +8.0
21 18.11 С 1 20 км 8/4 1500 м
[Sc Ac trans]
+1.1 -15.9 27 0 0 1022.3 1012.7

 

Местоположение метеостанции Нукус (Каракалпакстан, Узбекистан): широта 42.45 долгота 59.62 высота над уровнем моря 77 м.

В архиве по умолчанию представлена погода в Нукусе за последнюю неделю. Архивные данные за месяц целиком и за предыдущие месяцы, начиная с января 2011 года, Вы можете получить, выбрав интересующий диапазон дат из раскрывающегося списка и нажав кнопку "Ввод!".


*Определитесь, кто Вы:
робот инопланетянин человек

Внимание! Время в таблицах - всемирное. Для получения местного времени необходимо прибавить поправку, которая в Нукусе равна 5 ч.

Смотрите также архив погоды в соседних городах и на ближайших метеорологических станциях:

Погода в Тахтакупыре (Каракалпакстан, Узбекистан) (3 км)
Погода в Тахиаташе (Каракалпакстан, Узбекистан) (6 км)
Погода в Кенеургенче (Дашогузский велаят, Туркменистан) (44 км)
Погода в Чимбае (Каракалпакстан, Узбекистан) (58 км)
Погода в Дашогузе (Дашогузский велаят, Туркменистан) (80 км)
Погода в Кунграде (Каракалпакстан, Узбекистан) (90 км)
Погода в Гурлене (Хорезмская область, Узбекистан) (92 км)
Погода в Шах-Сенеме (Дашогузский велаят, Туркменистан) (122 км)
Погода в Ургенче (Хорезмская область, Узбекистан) (125 км)
Погода в Хиве (Хорезмская область, Узбекистан) (133 км)

Пояснения к столбцам:

Ветер - указаны скорость ветра в м/с - средняя за 10 мин, порывы в срок и между сроками (в фигурных скобках) и направление, откуда дует ветер: С - северный, СВ - северо-восточный, В - восточный, ЮВ - юго-восточный, Ю - южный, ЮЗ - юго-западный, З - западный, СЗ - северо-западный.
Видимость - горизонтальная дальность видимости в метрах или километрах. При видимости от 1 до 10 км при отсутствии осадков обычно наблюдается дымка, при ухудшении видимости до 1 км и менее - туман. В сухую погоду видимость может ухудшаться дымом, пылью или мглою.
Явления - указаны атмосферные явления, наблюдавшиеся в срок или в последний час перед сроком; фигурными скобками обозначены явления, наблюдавшиеся между сроками (за 1-3 часа до срока); квадратными скобками обозначены град или гололедные отложения с указанием их диаметра в мм.
Облачность - указаны через наклонную черту общая и нижняя облачность в баллах и высота нижней границы облаков в метрах; квадратными скобками обозначены формы облаков: Ci - перистые, Cs - перисто-слоистые, Cc - перисто-кучевые, Ac - высококучевые, As - высокослоистые, Sc - слоисто-кучевые, Ns - слоисто-дождевые, Cu - кучевые, Cb - кучево-дождевые. Подробнее классификацию облаков см. в Атласе облаков (PDF).
T - Температура воздуха - температура, измеренная на высоте 2 м над землей.
Td - Температура точки росы - температура, при понижении до которой содержащийся в воздухе водяной пар достигнет насыщения.
f - Относительная влажность воздуха - влажноcть воздуха, измеренная на высоте 2 м над землей.
Te - Эффективная температура - температура, которую ощущает одетый по сезону человек в тени. Характеристика душности погоды. При расчете учитывается влияние влажности воздуха и скорости ветра на теплоощущения человека.
Tes - Эффективная температура на солнце - температура, которую ощущает человек, с поправкой на солнечный нагрев. Характеристика знойности погоды. Зависит от высоты солнца над горизонтом, облачности и скорости ветра. Ночью, в пасмурную погоду, а также при ветре 12 м/с и более поправка равна нулю.
P - Атмосферное давление - приведенное к уровню моря атмосферное давление.
Po - Атмосферное давление - измеренное на уровне метеостанции атмосферное давление.
Tmin - Минимальная температура - минимум температуры воздуха на высоте 2 м над землей.
Tmax - Максимальная температура - максимум температуры воздуха на высоте 2 м над землей.
R - Количество осадков - Количество выпавших осадков за период времени, мм. При наведении курсора мыши на число - период времени, за который выпало указанное количество осадков.
R24 - Количество осадков - Количество выпавших осадков за 24 часа, мм.
S - Снежный покров - Высота снежного покрова, см. При наведении курсора мыши на число - состояние снежного покрова и степень покрытия местности в баллах.